This is the latest recevied weather packets stored in our database for station/object AC5CM. If no packets are shown the sender has not sent any weather packets the latest 10 day(s).
| Time | Temp. | Humidity | Pressure | Rain* | Wind** | Luminosity | Snow |
|---|---|---|---|---|---|---|---|
| 1777760245 | 25° C | 37% | 1019 hPa | 0 mm | - | - | - |
| 1777759639 | 25.56° C | 38% | 1019.1 hPa | 0 mm | - | - | - |
| 1777759033 | 25.56° C | 37% | 1019.2 hPa | 0 mm | - | - | - |
| 1777758427 | 25° C | 37% | 1018.9 hPa | 0 mm | - | - | - |
| 1777757821 | 25° C | 36% | 1019.1 hPa | 0 mm | - | - | - |
| 1777757518 | 25° C | 36% | 1019.1 hPa | 0 mm | - | - | - |
| 1777757216 | 25° C | 37% | 1019.3 hPa | 0 mm | - | - | - |
| 1777756610 | 25° C | 38% | 1019.2 hPa | 0 mm | - | - | - |
| 1777756307 | 25° C | 38% | 1019.2 hPa | 0 mm | - | - | - |
| 1777754186 | 25° C | 41% | 1019.2 hPa | 0 mm | - | - | - |
| 1777753579 | 25° C | 40% | 1019.6 hPa | 0 mm | - | - | - |
| 1777752974 | 24.44° C | 40% | 1019.6 hPa | 0 mm | - | - | - |
| 1777752670 | 25° C | 39% | 1019.7 hPa | 0 mm | - | - | - |
| 1777752366 | 25° C | 38% | 1019.9 hPa | 0 mm | - | - | - |
| 1777752064 | 25° C | 40% | 1019.9 hPa | 0 mm | - | - | - |
| 1777751457 | 24.44° C | 40% | 1020.2 hPa | 0 mm | - | - | - |
| 1777751154 | 24.44° C | 39% | 1020.1 hPa | 0 mm | - | - | - |
| 1777750548 | 24.44° C | 41% | 1020.1 hPa | 0 mm | - | - | - |
| 1777750244 | 24.44° C | 44% | 1020.2 hPa | 0 mm | - | - | - |
| 1777749940 | 24.44° C | 41% | 1020.3 hPa | 0 mm | - | - | - |
| 1777749638 | 24.44° C | 43% | 1020.7 hPa | 0 mm | - | - | - |
| 1777749334 | 24.44° C | 44% | 1020.5 hPa | 0 mm | - | - | - |
| 1777749032 | 24.44° C | 41% | 1020.5 hPa | 0 mm | - | - | - |
| 1777748730 | 24.44° C | 45% | 1020.8 hPa | 0 mm | - | - | - |
| 1777748426 | 24.44° C | 43% | 1020.6 hPa | 0 mm | - | - | - |
* Rain latest hour (hover to see other rain measurements)
** Current wind speed in m/s (hover to see current wind gust speed)